Location: Henschleben
(51.1425°N, 10.9684°E)
Time: 22:52:32
(UTC+00:00)

Daily predictions for brighter satellites

Satellite Brightness Start Highest point End
(mag) Time Altitude Azimuth Time Altitude Azimuth Time Altitude Azimuth
USA 238 DEB 4.3 17:43:22 10° NW 17:50:14 49° NNE 17:57:23 10° ESE
USA 238 4.3 17:43:28 10° NW 17:50:20 49° NNE 17:57:29 10° ESE
NOSS 3-1 (C) 4.3 17:47:47 10° WSW 17:53:22 52° NNW 18:00:01 10° NE
Cosmos 2263 Rocket 2.4 17:51:18 10° S 17:56:38 50° ESE 18:02:03 10° NE
Meteor 2-9 Rocket 4.4 17:54:04 10° S 17:59:47 58° E 18:05:28 10° NNE
Tsikada Rocket 4.5 17:55:35 10° NNW 18:01:42 67° W 18:07:47 10° S
USA 102 3.9 17:55:14 10° SSE 18:01:42 79° ENE 18:04:26 10° NNW
SL-08 RB Rocket 4.3 17:57:38 10° SE 18:01:53 38° ENE 18:06:07 10° N
Cosmos 1844 Rocket 4.1 18:01:44 10° SE 18:04:37 14° E 18:07:30 10° ENE
CZ-2C R/B 3.2 17:59:31 10° SSE 18:04:47 90° ENE 18:10:23 10° NNW
SJ 16-02 1.7 18:00:54 10° SSW 18:05:16 72° WNW 18:09:41 10° NNE
Cosmos 990 Rocket 3.9 18:00:30 10° SSW 18:05:36 71° ESE 18:10:45 10° NNE
Cosmos 2227 4.3 18:00:33 10° SSW 18:06:12 63° ESE 18:11:51 10° NE
ISS -1.6 18:05:26 10° SSE 18:06:53 12° SE 18:08:13 10° ESE
Cosmos 1464 Rocket 4.5 18:01:24 10° SSE 18:06:53 36° E 18:12:27 10° NNE
Abrixas rocket 2.7 18:06:20 10° SW 18:08:57 34° SSE 18:11:15 12° E
Cosmos 1943 3.4 18:03:42 10° NNW 18:09:22 76° WSW 18:15:00 10° SSE
Okean 2 Rocket 4.0 18:06:40 10° SSE 18:10:29 28° E 18:14:19 10° NNE
SJ-11-01 4.3 18:06:22 10° SSE 18:11:06 87° E 18:15:50 10° NNW
NOSS 8 (F) 4.0 18:08:50 10° SW 18:11:59 71° SE 18:15:01 10° NE
Okean-O 4.1 18:09:15 10° S 18:13:26 41° W 18:17:39 10° NNW
Lacrosse 5 rocket 1.9 18:09:36 10° WSW 18:13:51 64° NNW 18:18:18 10° ENE
Ariane Rocket 3.3 18:11:43 10° SE 18:16:33 47° ENE 18:21:25 10° N
Cosmos 1437 3.0 18:14:20 10° NNW 18:17:20 65° W 18:20:18 10° S
NOSS 3-2 (A) 4.1 18:11:35 10° NW 18:18:45 65° NE 18:26:32 12° ESE
Meteor 1-21 4.4 18:14:29 10° NNW 18:20:08 81° W 18:25:43 10° S
NOSS 2-2 (C) 4.0 18:18:16 10° S 18:21:16 27° ESE 18:24:34 10° ENE
USA 116 3.4 18:18:25 10° NNE 18:21:46 86° WNW 18:25:27 10° SSW
Cosmos 2227 Rocket 4.3 18:18:05 10° W 18:22:54 28° NW 18:27:43 10° NNE
Cosmos 1300 Rocket 4.1 18:19:43 10° SSE 18:23:44 35° E 18:27:47 10° NNE
SPOT 3 Rocket 4.4 18:22:59 12° ESE 18:26:55 31° ENE 18:31:23 10° N
MetOp-A 4.4 18:23:16 10° SE 18:28:23 48° ENE 18:33:31 10° N
YAOGAN 1 4.1 18:25:00 10° SSW 18:29:03 38° W 18:33:07 10° NNW
HJ-1C 4.2 18:28:10 10° S 18:31:23 51° W 18:34:38 10° NNW
Cosmos 1898 Rocket 3.6 18:27:33 10° SSW 18:32:43 80° WNW 18:37:57 10° NNE
Cosmos 1867 3.7 18:27:35 10° NW 18:33:04 78° SW 18:38:31 10° SSE
CSL-04 Rocket 4.4 18:28:59 10° S 18:34:19 58° WSW 18:39:46 10° NNW
Cosmos 1891 Rocket 4.5 18:28:29 10° S 18:34:29 59° E 18:40:26 10° NNE
Cosmos 1536 Rocket 3.9 18:33:06 10° N 18:37:24 47° ENE 18:41:16 13° SSE
USA 234 4.0 18:35:32 10° ENE 18:41:06 29° SE 18:46:40 10° S
Cosmos 1626 3.9 18:40:38 10° NNE 18:43:01 16° ENE 18:43:18 16° ENE
Meteor 2-5 Rocket 4.4 18:39:44 10° N 18:44:51 34° ENE 18:48:05 20° ESE
DMSP B5D2-2 4.4 18:40:38 10° NNE 18:45:40 43° E 18:50:41 10° SSE
CREW DRAGON DEMO-1 DEB 2.8 18:43:32 10° W 18:46:34 79° N 18:47:59 29° E
Cosmos 1782 Rocket 4.4 18:45:40 10° SSW 18:49:59 54° WNW 18:54:23 10° N
Cosmos 1975 4.4 18:47:15 10° SW 18:51:07 40° WNW 18:55:00 10° N
CZ-4 R/B 4.3 18:48:17 10° SW 18:51:26 20° W 18:54:36 10° NW
Cosmos 1025 Rocket 3.0 18:47:03 10° N 18:51:27 82° E 18:55:51 10° SSE
Cosmos 2151 Rocket 3.8 18:47:16 10° SSE 18:51:33 49° E 18:55:55 10° NNE
Cosmos 372 Rocket 4.0 18:46:42 10° S 18:51:51 59° ESE 18:57:00 10° NNE
USA 186 1.9 18:48:49 10° S 18:51:55 74° W 18:55:10 10° NNW
NOSS 3-2 (C) 4.1 18:45:40 10° NW 18:52:52 67° NE 18:58:45 21° ESE
Cosmos 2150 Rocket 4.4 18:49:18 10° S 18:54:20 42° ESE 18:59:27 10° NE
Cosmos 1072 Rocket 4.5 18:51:10 10° S 18:57:25 86° E 19:03:49 10° N
Nadezhda 4 Rocket 3.9 18:52:00 10° N 18:58:10 74° E 19:04:16 10° SSE
Cosmos 1805 4.2 19:00:43 28° E 19:00:43 28° E 19:03:56 10° NNE
Cosmos 2082 Rocket 3.9 18:57:59 10° NNW 19:01:55 19° NNE 19:04:43 14° ENE
OBJECT-B 0.9 19:01:23 38° SE 19:02:20 56° ENE 19:05:33 10° N
Cosmos 1937 Rocket 4.0 18:57:15 10° SW 19:02:27 64° WNW 19:07:39 10° NNE
MOS 1 Rocket 3.7 18:58:16 10° N 19:02:46 62° WNW 19:07:03 10° SSW
Cosmos 2034 Rocket 4.0 18:57:21 10° S 19:03:39 67° E 19:09:57 10° NNE
Cosmos 1125 Rocket 4.1 19:00:33 10° SSE 19:05:20 35° ESE 19:10:09 10° NE
FREGAT/IRIS 2.6 19:05:32 32° S 19:06:30 62° WSW 19:09:05 10° NNW
Exosat Rocket 4.1 19:01:41 10° S 19:06:38 34° ESE 19:11:07 10° NE
Cosmos 1674 2.7 19:04:26 10° N 19:08:16 61° ENE 19:09:42 35° SE
COSMOS 2406 4.1 19:04:51 10° NNW 19:10:00 33° NE 19:12:17 25° E
Meteor 1-24 Rocket 4.1 19:06:57 10° N 19:12:07 42° ENE 19:14:11 30° ESE
In-Cosmos 22 4.4 19:10:01 10° NNW 19:15:15 64° W 19:20:31 10° S
SL-14 R/B 4.2 19:12:46 10° N 19:16:09 30° ENE 19:16:09 30° ENE
ERS-1 Rocket 4.4 19:17:23 20° ENE 19:18:07 21° ENE 19:21:47 10° N
NOSS 2-2 (E) 3.2 19:14:51 10° SW 19:18:24 80° NW 19:22:37 10° NE
Cosmos 1707 4.4 19:17:11 10° NNW 19:20:39 33° W 19:24:07 10° SSW
Resurs 01 Rocket 1.7 19:19:16 38° SE 19:20:41 57° ENE 19:25:04 10° N
H-2A R/B 4.0 19:17:16 10° SSW 19:21:30 28° W 19:25:50 10° NW
CZ-2C R/B 2.7 19:17:41 10° NNE 19:23:14 89° WNW 19:28:50 10° SSW
ATLAS 2AS CENTAUR R/B 3.9 19:24:48 26° E 19:24:48 26° E 19:29:47 10° ENE
SJ-6B 3.6 19:21:47 14° S 19:24:43 46° W 19:28:22 10° NNW
Lacrosse 4 Rocket 3.4 19:22:26 10° N 19:25:01 16° NNE 19:25:54 15° NE
KORONAS-FOTON 3.8 19:21:58 10° N 19:25:55 89° W 19:27:14 41° S
Landsat 7 4.4 19:25:47 35° E 19:26:29 37° ENE 19:30:51 10° N
NOSS 2-2 (D) 3.1 19:23:18 10° SW 19:26:50 83° NW 19:30:59 10° NE
Cosmos 1048 Rocket 4.3 19:25:38 10° NNW 19:30:54 65° WSW 19:34:10 23° S
Cosmos 1766 3.8 19:33:39 42° ENE 19:33:39 42° ENE 19:36:43 10° NNE
ATLAS CENTAUR R/B 4.0 19:32:00 10° NW 19:33:40 12° NNW 19:35:20 10° NNE
CENTAUR R/B 3.1 19:25:49 10° NW 19:33:46 90° ENE 19:38:32 31° SE
SPOT 1/Viking Rocket 4.1 19:33:46 36° E 19:34:34 38° ENE 19:39:20 10° N
Cosmos 1844 3.7 19:30:07 10° S 19:35:39 54° ESE 19:41:10 10° NE
IGS 5A 4.0 19:37:08 41° ENE 19:37:08 41° ENE 19:40:52 10° N
Cosmos 1634 Rocket 4.0 19:34:23 30° SSE 19:37:16 55° E 19:43:19 10° NNE
ARIANE 5 R/B 2.8 19:37:43 50° E 19:37:58 50° ENE 19:42:12 10° N
SWAS 4.4 19:33:51 10° NW 19:38:10 79° WSW 19:39:04 54° SSE
ATLAS 3B R/B 3.1 19:33:17 10° NW 19:39:54 51° NE 19:42:49 32° E
Cosmos 1269 Rocket 4.0 19:34:54 10° NNW 19:40:12 65° ENE 19:41:30 48° ESE
Cosmos 2263 Rocket 3.7 19:35:39 10° WSW 19:40:46 36° NW 19:45:58 10° NNE
USA 238 DEB 4.1 19:34:27 10° NW 19:41:32 64° SW 19:45:38 28° SSE
USA 238 4.1 19:34:33 10° NW 19:41:39 64° SW 19:45:43 28° SSE
Cosmos 2285 Rocket 3.9 19:35:47 10° S 19:41:57 61° ESE 19:48:13 10° NNE
MetOp-B 4.1 19:41:10 45° SE 19:42:39 65° ENE 19:47:58 10° N
ISS -1.8 19:39:50 10° SW 19:41:13 22° SW 19:41:13 22° SW
Abrixas rocket 3.9 19:41:14 10° W 19:42:32 23° WSW 19:42:32 23° WSW
Cosmos 1844 Rocket 2.5 19:42:01 10° SSW 19:47:34 79° ESE 19:53:12 10° NNE
Spot 2 Rocket 3.6 19:48:07 51° E 19:48:40 53° ENE 19:53:35 10° N
Cosmos 1627 Rocket 4.5 19:44:00 10° N 19:50:26 89° E 19:53:33 33° S
Okean 1 Rocket 3.0 19:51:22 48° SSW 19:52:36 88° W 19:57:09 10° N
Lacrosse 5 rocket 2.7 19:49:28 10° WNW 19:53:36 39° N 19:55:13 29° NE
Cosmos 1092 Rocket 4.2 19:50:26 10° NNW 19:56:33 70° W 20:00:15 25° S
Meteor 1-15 Rocket 4.5 19:54:15 10° SSW 19:59:51 69° WNW 20:05:35 10° N
Cosmos 2026 Rocket 4.1 19:57:44 10° NNW 20:04:06 79° W 20:06:55 36° S
CZ-2C R/B 3.7 20:00:05 10° NNE 20:04:33 78° WNW 20:05:30 54° SW
Meteor 2-19 Rocket 4.4 19:58:45 10° N 20:04:50 60° ENE 20:05:40 55° ESE
SPOT 3 Rocket 4.3 20:03:39 27° SSW 20:06:08 48° W 20:11:08 10° NNW
Cosmos 1833 Rocket 2.8 20:01:39 10° NNW 20:07:14 56° NE 20:07:47 54° ENE
Cosmos 2251 Rocket 4.2 20:07:47 10° NNW 20:12:49 41° NE 20:12:49 41° NE
Terra 2.9 20:19:12 33° NE 20:19:12 33° NE 20:22:36 10° N
Cosmos 1626 3.3 20:14:58 10° NNW 20:17:51 42° WNW 20:17:51 42° WNW
Cosmos 1892 Rocket 3.9 20:16:23 10° NNW 20:20:06 63° NNW 20:20:06 63° NNW
Cosmos 2279 Rocket 3.9 20:20:51 66° SE 20:21:33 73° E 20:27:49 10° NNE
Cosmos 2142 Rocket 4.4 20:21:19 57° S 20:22:45 84° E 20:29:01 10° N
USA 234 3.1 20:19:23 16° ENE 20:24:47 79° SSE 20:31:21 10° SW
OBJECT-B 3.9 20:34:34 11° W 20:35:02 11° W 20:36:07 10° WNW
SPOT 5 3.3 20:40:10 63° NNE 20:40:10 63° NNE 20:44:44 10° NNW
Cosmos 2082 Rocket 2.4 20:41:32 10° NNW 20:46:33 60° NNE 20:46:33 60° NNE
COSMOS 2406 3.6 20:49:04 10° NW 20:54:20 57° W 20:54:20 57° W
ERS-1 Rocket 3.5 20:57:24 56° NW 20:57:24 56° NW 21:01:28 10° NNW
Resurs 01 Rocket 3.8 20:56:51 19° WSW 20:57:32 20° W 21:00:48 10° NW
Cosmos 2098 Rocket 4.2 20:56:09 10° NNW 21:03:24 72° W 21:03:50 70° WSW
Lacrosse 4 Rocket 3.4 21:00:21 10° NNW 21:02:11 26° NNW 21:02:11 26° NNW
Cosmos 2266 Rocket 4.0 21:00:01 10° NNW 21:05:35 74° NW 21:05:35 74° NW
Cosmos 1655 Rocket 4.3 21:06:14 10° NNW 21:12:23 60° W 21:12:30 59° W
ATLAS 2AS CENTAUR R/B 2.9 21:11:59 61° SW 21:13:40 87° SE 21:21:34 10° NE
ATLAS CENTAUR R/B 4.2 21:12:50 10° N 21:13:41 11° N 21:13:41 11° N
Cosmos 2278 Rocket 3.6 21:22:33 29° NNE 21:22:33 29° NNE 21:25:15 10° NNE
CENTAUR R/B 4.3 21:17:06 10° NW 21:24:00 31° WSW 21:25:44 29° SW
ATLAS 3B R/B 3.1 21:24:06 10° NW 21:30:03 54° W 21:30:03 54° W
Lacrosse 5 rocket 3.7 21:29:02 10° WNW 21:30:51 23° NW 21:30:51 23° NW
Cosmos 1833 Rocket 4.3 21:46:01 10° NW 21:49:28 27° W 21:49:28 27° W
Terra 3.9 21:58:07 23° NW 21:58:07 23° NW 22:00:21 10° NNW
USA 234 3.6 22:01:18 10° ENE 22:07:43 60° NNW 22:14:07 10° W
Cosmos 2082 Rocket 4.3 22:26:16 10° NW 22:28:23 19° WNW 22:28:23 19° WNW
Cosmos 1943 Rocket 4.3 22:35:45 19° NE 22:35:45 19° NE 22:37:18 10° NE
COSMOS 2455 4.3 22:35:51 31° NNE 22:35:51 31° NNE 22:38:57 10° NE
Cosmos 2369 Rocket 4.2 22:59:19 21° NE 22:59:19 21° NE 23:01:12 10° NE
CZ-4C R/B 3.9 23:02:00 30° NE 23:02:00 30° NE 23:05:18 10° NE
Cosmos 2278 Rocket 4.0 23:04:23 25° NW 23:04:23 25° NW 23:09:01 10° NNE
ATLAS 2AS CENTAUR R/B 4.0 22:59:08 15° W 23:05:30 43° NNW 23:12:47 10° NE
NOSS 3-1 (C) 4.3 23:23:11 10° NW 23:28:49 59° NNW 23:28:49 59° NNW
Cosmos 2227 Rocket 4.1 23:37:45 10° NNW 23:42:18 24° NE 23:43:29 23° ENE
USA 234 3.7 23:43:57 10° E 23:50:18 56° N 23:56:39 10° WNW
